APEX - Orbit

View from above orbital plane
View from above orbital plane
View from above satellite
View from above satellite

Ground track
Ground track

The orbit data is extracted from the following two-line orbital elements,

1 23191U 94046A   13168.80657572  .00008674  00000-0  39630-3 0  6107
2 23191 069.9279 254.8756 0805783 052.3029 077.2441 13.88534207909711
Epoch (UTC): 17 June 2013 19:21:28
Eccentricity: 0.0805783
inclination: 69.9279°
perigee height: 344 km
apogee height: 1523 km
right ascension of ascending node: 254.8756°
argument of perigee: 52.3029°
revolutions per day: 13.88534207
mean anomaly at epoch: 77.2441°
orbit number at epoch: 90971

The dashed part of the orbit path shows where the satellite is in the earth's shadow,  

Developed and maintained by Chris Peat, Heavens-Above GmbH. Please read the updated FAQ before sending e-mail. Imprint. DLR